This is the latest recevied weather packets stored in our database for station/object IK8TGH-3. If no packets are shown the sender has not sent any weather packets the latest 10 day(s).
| Time | Temp. | Humidity | Pressure | Rain* | Wind** | Luminosity | Snow |
|---|---|---|---|---|---|---|---|
| 1777427527 | 17.78° C | 66% | 1016.7 hPa | - | - | - | - |
| 1777426326 | 18.33° C | 65% | 1016.9 hPa | - | - | - | - |
| 1777425126 | 18.33° C | 64% | 1016.8 hPa | - | - | - | - |
| 1777423926 | 18.33° C | 64% | 1016.8 hPa | - | - | - | - |
| 1777422725 | 18.33° C | 63% | 1017 hPa | - | - | - | - |
| 1777421525 | 18.33° C | 62% | 1017.2 hPa | - | - | - | - |
| 1777420325 | 18.33° C | 62% | 1017.2 hPa | - | - | - | - |
| 1777419125 | 18.89° C | 61% | 1017.4 hPa | - | - | - | - |
| 1777417924 | 18.89° C | 60% | 1017.6 hPa | - | - | - | - |
| 1777416724 | 18.89° C | 58% | 1017.7 hPa | - | - | - | - |
| 1777415524 | 18.89° C | 56% | 1017.7 hPa | - | - | - | - |
| 1777414323 | 19.44° C | 55% | 1017.5 hPa | - | - | - | - |
| 1777413123 | 19.44° C | 54% | 1017.6 hPa | - | - | - | - |
| 1777411923 | 19.44° C | 53% | 1017.9 hPa | - | - | - | - |
| 1777410722 | 20° C | 52% | 1017.9 hPa | - | - | - | - |
| 1777409522 | 20° C | 50% | 1017.6 hPa | - | - | - | - |
| 1777408322 | 20° C | 47% | 1017.5 hPa | - | - | - | - |
| 1777407121 | 19.44° C | 50% | 1017.4 hPa | - | - | - | - |
| 1777405921 | 19.44° C | 46% | 1017.3 hPa | - | - | - | - |
| 1777404721 | 18.89° C | 45% | 1017.5 hPa | - | - | - | - |
| 1777403520 | 18.89° C | 53% | 1017.4 hPa | - | - | - | - |
| 1777402320 | 19.44° C | 53% | 1017.2 hPa | - | - | - | - |
| 1777401120 | 19.44° C | 54% | 1017.1 hPa | - | - | - | - |
| 1777399919 | 19.44° C | 54% | 1017.1 hPa | - | - | - | - |
| 1777398719 | 19.44° C | 54% | 1017 hPa | - | - | - | - |
* Rain since midnight (hover to see other rain measurements)
** Current wind speed in m/s (hover to see current wind gust speed)